[[{"header":{"parameterUnit":"m.s-1","parameterCategory":1,"la1":30.2991,"la2":30.254,"lo1":-89.0895,"lo2":-89.0444,"dy":0.0017,"dx":0.0017,"nx":28,"ny":28,"refTime":"2024-10-22T03:00:00:Z","depth":0,"parameterNumber":2,"parameterNumberName":"U-component_of_WINDS"},"data":[0,0,0,0,0,0,0,0,0,0,0,0,0,0,0,0,0,0,0,0,0,0,0,0,0,0,0,0,0,0,0,0,0,0,0,0,0,0,0,0,0,0,0,0,0,0,0,0,0,0,0,0,0,0,0,0,0,0,0.1864,0.1864,0,0.1915,0.1916,0.1917,0.2004,0.2006,0.2008,0.2009,0.2059,0.2059,0.2059,0,0,0,0,0,0,0,0,0,0,0,0,0,0.1837,0.1837,0.1864,0.1864,0.1865,0.1915,0.1916,0.1917,0.2004,0.2006,0.2008,0.201,0.2059,0.2059,0.2059,0,0,0,0,0,0,0,0,0,0,0,0,0,0.1864,0.1837,0.1864,0.1915,0.192,0.1915,0.1916,0.1917,0.2004,0.2006,0.2009,0.2011,0.2059,0.2059,0.2059,0.2008,0,0,0.2058,0.2058,0,0,0,0,0,0,0,0,0.1863,0.1865,0.1906,0.1911,0.1917,0.1956,0.1925,0.1947,0.2003,0.1972,0.2009,0.2012,0.2023,0.2025,0.203,0.201,0.2012,0.2058,0.2058,0.2057,0.2057,0,0,0,0,0,0,0,0.1861,0.1863,0.1884,0.1907,0.1913,0.1934,0.194,0.193,0.1983,0.1975,0.1981,0.1986,0.2026,0.203,0.2032,0.2013,0.2058,0.2057,0.2057,0.2057,0.1951,0.1948,0,0,0,0,0,0,0.1852,0.1861,0.1882,0.1886,0.1895,0.1932,0.194,0.1941,0.1983,0.1992,0.1984,0.199,0.2029,0.2032,0.2034,0.1974,0.2057,0.2057,0.2057,0.1953,0.195,0.1947,0,0,0,0,0,0,0.1851,0.1853,0.188,0.1875,0.188,0.193,0.1931,0.1941,0.1945,0.199,0.2,0.1978,0.2031,0.2034,0.2013,0.1977,0.2057,0.2057,0.1956,0.1952,0.1949,0.1856,0,0,0,0,0,0,0.185,0.1852,0.1834,0.1874,0.188,0.186,0.1929,0.194,0.1944,0.1953,0.1987,0.1995,0.2033,0.2013,0.2013,0.1978,0.2057,0.196,0.1955,0.195,0.1862,0.1849,0.1838,0,0,0,0,0,0.1848,0.1806,0.1832,0.1835,0.1859,0.1857,0.1861,0.1906,0.1941,0.1922,0.1951,0.1994,0.1982,0.201,0.201,0.1975,0.1962,0.1956,0.195,0.1868,0.1852,0.1838,0,0,0,0,0,0,0.1759,0.1812,0.1842,0.1812,0.1829,0.1872,0.185,0.1888,0.1895,0.1903,0.1958,0.1965,0.1936,0.1954,0.1985,0.1927,0.1978,0.1972,0.1915,0.1901,0.1889,0.1884,0.2056,0,0,0,0,0,0.1736,0.1731,0.1778,0.1746,0.1753,0.18,0.1801,0.1834,0.1855,0.1862,0.189,0.1907,0.1907,0.1905,0.1908,0.1866,0.1873,0.1842,0.183,0.182,0.1813,0.1789,0.1775,0.1928,0.1928,0.1928,0,0,0.1688,0.1716,0.171,0.1729,0.1746,0.1738,0.1806,0.1795,0.179,0.1861,0.1842,0.1862,0.1885,0.1852,0.184,0.1867,0.1773,0.1812,0.1804,0.1802,0.1782,0.1767,0.1754,0.1924,0.1924,0.1925,0,0,0.1595,0.1618,0.1592,0.1609,0.1635,0.1666,0.166,0.1697,0.1713,0.1696,0.1748,0.1742,0.1741,0.1754,0.176,0.1672,0.171,0.1671,0.1607,0.1583,0.1571,0.1561,0.1526,0.1513,0.1665,0.1664,0.1664,0,0.1532,0.1523,0.1575,0.156,0.1566,0.1631,0.1604,0.1617,0.1642,0.1644,0.1675,0.1673,0.1693,0.1663,0.1641,0.1646,0.1638,0.1666,0.1569,0.1559,0.155,0.1517,0.1505,0.1659,0.166,0.166,0.1661,0,0.1442,0.1436,0.1412,0.1435,0.1438,0.1418,0.1464,0.1461,0.1494,0.1521,0.1501,0.1528,0.1535,0.1531,0.1563,0.1505,0.1521,0.1559,0.1612,0.1529,0.15,0.1488,0.1652,0.1654,0.1655,0.1657,0,0,0.1294,0.1345,0.1335,0.1345,0.1379,0.1374,0.1356,0.1364,0.1359,0.1374,0.1358,0.1355,0.1391,0.1398,0.1432,0.1412,0.1336,0.1453,0.1454,0.1428,0.127,0.1239,0.1224,0.1363,0.1361,0.136,0.1267,0,0.1207,0.1179,0.1224,0.1185,0.1178,0.1239,0.1223,0.1241,0.1266,0.1262,0.129,0.1286,0.1335,0.1339,0.1322,0.1349,0.1305,0.1357,0.1347,0.1346,0.1336,0.1209,0.1176,0.1088,0.1257,0.1255,0.1253,0,0.1101,0.111,0.1071,0.1105,0.1103,0.1088,0.1098,0.1095,0.1115,0.1135,0.1142,0.1183,0.1165,0.1218,0.1193,0.1228,0.1226,0.1239,0.1237,0.1235,0.1292,0.1201,0.1062,0.1047,0.1236,0.1238,0.1239,0,0.0992,0.0996,0.0972,0.0979,0.1019,0.1006,0.1022,0.1045,0.1047,0.1055,0.1056,0.1063,0.1065,0.1068,0.1108,0.1144,0.1078,0.1135,0.1091,0.109,0.1072,0.1072,0.0927,0.1076,0.1076,0.1077,0.1077,0,0.0888,0.0861,0.0924,0.0909,0.0879,0.0931,0.09,0.0922,0.0942,0.093,0.0985,0.0973,0.1028,0.1022,0.1053,0.1026,0.1028,0.1041,0.1049,0.1035,0.1032,0.1033,0.1039,0.1073,0.1074,0.1075,0.1075,0,0.0761,0.0803,0.078,0.082,0.0829,0.0805,0.0838,0.0825,0.0854,0.0839,0.0838,0.0883,0.0878,0.0919,0.0922,0.0943,0.09,0.0921,0.0893,0.0898,0.0851,0.0854,0.0699,0.068,0.0843,0.0842,0.084,0,0.0691,0.0671,0.0708,0.0705,0.0718,0.0713,0.0714,0.0764,0.0763,0.0784,0.0767,0.0767,0.077,0.0759,0.079,0.0792,0.0811,0.0757,0.0811,0.0796,0.0806,0.0806,0.0803,0.0744,0.0742,0.074,0.0739,0,0.056,0.0581,0.0582,0.0589,0.0589,0.0597,0.0609,0.0603,0.0657,0.0653,0.0649,0.065,0.0653,0.0651,0.0659,0.0674,0.0714,0.0722,0.0711,0.0695,0.0678,0.0683,0.0858,0.0725,0.0726,0.0727,0.0728,0.0728,0.0457,0.0441,0.0464,0.0463,0.0477,0.0486,0.0475,0.0502,0.05,0.0506,0.0536,0.0526,0.0545,0.056,0.0571,0.0562,0.0589,0.0574,0.057,0.0565,0.0555,0.0682,0.0565,0.0565,0.0566,0.0566,0.0566,0,0.0326,0.0344,0.0342,0.0356,0.0354,0.0394,0.0409,0.0404,0.0394,0.041,0.0411,0.0405,0.0403,0.0434,0.0436,0.0423,0.0441,0.0421,0.0421,0.0423,0.0533,0.054,0.0406,0.0406,0.0406,0.0406,0.0406,0.0406,0.0258,0.0232,0.0256,0.0238,0.0256,0.0247,0.0251,0.0259,0.0271,0.0262,0.0261,0.0282,0.0303,0.0306,0.0305,0.0315,0.0311,0.0284,0.0299,0.04,0.0416,0.0431,0.0438,0.0284,0.0284,0.019,0.0189,0.0188]},{"header":{"parameterUnit":"m.s-1","parameterCategory":1,"la1":30.2991,"la2":30.254,"lo1":-89.0895,"lo2":-89.0444,"dy":0.0017,"dx":0.0017,"nx":28,"ny":28,"refTime":"2024-10-22T03:00:00:Z","depth":0,"parameterNumber":3,"parameterNumberName":"V-component_of_WINDS"},"data":[0,0,0,0,0,0,0,0,0,0,0,0,0,0,0,0,0,0,0,0,0,0,0,0,0,0,0,0,0,0,0,0,0,0,0,0,0,0,0,0,0,0,0,0,0,0,0,0,0,0,0,0,0,0,0,0,0,0,1.05,1.0499,0,1.0451,1.045,1.045,1.0449,1.045,1.045,1.0451,1.0396,1.0394,1.0392,0,0,0,0,0,0,0,0,0,0,0,0,0,1.0589,1.0587,1.05,1.0499,1.0499,1.0451,1.045,1.045,1.0449,1.045,1.0451,1.0451,1.0397,1.0394,1.0392,0,0,0,0,0,0,0,0,0,0,0,0,0,1.0546,1.0587,1.05,1.0493,1.0492,1.0451,1.045,1.0449,1.0449,1.045,1.0451,1.0452,1.0398,1.0395,1.0392,1.0353,0,0,1.0382,1.0381,0,0,0,0,0,0,0,0,1.0548,1.0543,1.0494,1.0493,1.0492,1.0457,1.0461,1.0417,1.0449,1.0465,1.0451,1.0452,1.0415,1.0411,1.0399,1.0351,1.0348,1.0382,1.038,1.0379,1.0378,0,0,0,0,0,0,0,1.0551,1.0545,1.048,1.0494,1.0492,1.0491,1.0486,1.0453,1.0435,1.0464,1.0463,1.0458,1.0415,1.0402,1.0398,1.0348,1.0382,1.0379,1.0377,1.0376,1.0265,1.0264,0,0,0,0,0,0,1.0556,1.0547,1.0482,1.0479,1.0523,1.0488,1.0483,1.0467,1.0436,1.0432,1.0457,1.0458,1.0407,1.0402,1.0396,1.0349,1.0379,1.0376,1.0374,1.0266,1.0265,1.0263,0,0,0,0,0,0,1.0558,1.055,1.0484,1.0513,1.0504,1.0486,1.0468,1.0466,1.0453,1.0431,1.0427,1.0448,1.0408,1.04,1.0364,1.0347,1.0374,1.0372,1.0267,1.0266,1.0264,1.0254,0,0,0,0,0,0,1.0561,1.0551,1.0537,1.0513,1.0503,1.0454,1.0467,1.0464,1.0449,1.0449,1.0421,1.0417,1.0408,1.0369,1.0361,1.0343,1.0369,1.0269,1.0266,1.0265,1.0256,1.0253,1.025,0,0,0,0,0,1.0564,1.0536,1.0537,1.0529,1.0485,1.0453,1.0447,1.0438,1.0447,1.0433,1.0418,1.0418,1.0351,1.0365,1.0357,1.0337,1.027,1.0267,1.0265,1.0257,1.0253,1.025,0,0,0,0,0,0,1.0557,1.0532,1.0533,1.0496,1.0477,1.0453,1.0434,1.0434,1.041,1.0412,1.04,1.0394,1.0357,1.0344,1.0361,1.0299,1.0311,1.0307,1.0308,1.0304,1.0301,1.0304,1.0367,0,0,0,0,0,1.0551,1.0529,1.0508,1.0477,1.0468,1.0453,1.0438,1.0433,1.0412,1.0403,1.0386,1.0364,1.0338,1.032,1.0295,1.0255,1.0248,1.0237,1.0234,1.0231,1.0227,1.0204,1.0199,1.0255,1.0255,1.0255,0,0,1.0539,1.0523,1.0509,1.0475,1.046,1.0435,1.0446,1.0419,1.04,1.0398,1.0363,1.035,1.0325,1.0286,1.0269,1.0274,1.021,1.0228,1.0226,1.0223,1.0201,1.0196,1.0191,1.0254,1.0254,1.0254,0,0,1.0504,1.049,1.0463,1.0447,1.0424,1.0415,1.0408,1.0384,1.0376,1.0341,1.034,1.0316,1.0272,1.0254,1.0238,1.0198,1.0196,1.019,1.0172,1.0149,1.0145,1.0141,1.0125,1.012,1.0186,1.0186,1.0186,0,1.049,1.0454,1.0448,1.0421,1.0406,1.0406,1.0378,1.0363,1.0332,1.0321,1.0328,1.0272,1.0255,1.0212,1.0202,1.0191,1.0181,1.0192,1.0146,1.0142,1.0138,1.0123,1.0117,1.0185,1.0185,1.0185,1.0185,0,1.0439,1.0414,1.0395,1.0367,1.035,1.0322,1.031,1.0294,1.029,1.028,1.0244,1.0224,1.0194,1.0184,1.018,1.014,1.0144,1.0149,1.0161,1.0132,1.0118,1.0112,1.0184,1.0184,1.0184,1.0185,0,0,1.0396,1.0366,1.0359,1.0346,1.0321,1.0301,1.0273,1.0246,1.0231,1.0211,1.0186,1.0149,1.0153,1.0136,1.013,1.0111,1.0079,1.0118,1.0117,1.011,1.0032,1.0028,1.0021,1.0079,1.0078,1.0077,1.0034,0,1.0357,1.0309,1.0303,1.026,1.0236,1.0236,1.0212,1.0193,1.0183,1.016,1.0148,1.0122,1.013,1.012,1.0101,1.0087,1.0062,1.009,1.0054,1.0053,1.0059,1.0014,1.0008,0.9969,1.0028,1.0027,1.0027,0,1.0304,1.0284,1.0239,1.0217,1.0207,1.0186,1.016,1.0139,1.0118,1.0111,1.0093,1.009,1.006,1.0075,1.0032,1.0051,1.0036,1.0027,1.0025,1.002,1.0037,1.0006,0.9956,0.995,1.0018,1.0019,1.0019,0,1.0276,1.0237,1.0205,1.0194,1.0169,1.0153,1.0142,1.0122,1.0106,1.0083,1.0072,1.0046,1.0031,1.0011,1.0,1.0012,0.9958,0.9972,0.995,0.995,0.9937,0.9938,0.9883,0.9931,0.9931,0.9931,0.9931,0,1.0232,1.0204,1.0192,1.0172,1.014,1.0133,1.0102,1.0091,1.0073,1.005,1.0049,1.0026,1.0015,0.9991,0.9982,0.9948,0.9941,0.9934,0.9932,0.9933,0.9934,0.9922,0.9924,0.9929,0.993,0.993,0.993,0,1.0193,1.0184,1.0149,1.0129,1.0123,1.0101,1.0083,1.0063,1.0053,1.0024,1.0017,1.0001,0.9973,0.9961,0.9925,0.992,0.988,0.988,0.9887,0.9886,0.9865,0.9866,0.9799,0.9789,0.9845,0.9844,0.9844,0,1.0165,1.0144,1.0122,1.0107,1.0095,1.0072,1.0056,1.0048,1.0032,1.0007,0.9989,0.9962,0.9939,0.9893,0.9878,0.9851,0.9849,0.9828,0.9845,0.9847,0.9847,0.9848,0.9845,0.9824,0.9823,0.9823,0.9823,0,1.0115,1.0112,1.009,1.0067,1.0049,1.0029,1.0011,0.9998,0.9988,0.9969,0.9941,0.9924,0.9889,0.986,0.9833,0.9819,0.9818,0.9818,0.9811,0.9811,0.9816,0.9812,0.9877,0.9819,0.9819,0.9819,0.982,0.982,1.008,1.0061,1.0043,1.0018,1.0004,0.9987,0.9967,0.9956,0.9933,0.9905,0.9902,0.9871,0.985,0.9813,0.9799,0.9774,0.9779,0.977,0.9767,0.9764,0.9762,0.9821,0.9769,0.9769,0.9769,0.9769,0.977,0,1.0028,1.0017,0.9995,0.997,0.995,0.9954,0.9934,0.9917,0.9891,0.9872,0.985,0.9818,0.9791,0.9774,0.9746,0.973,0.9729,0.9723,0.9723,0.9719,0.976,0.9768,0.9724,0.9724,0.9724,0.9724,0.9724,0.9724,0.9999,0.9967,0.9962,0.9923,0.9911,0.9883,0.9871,0.9854,0.984,0.9804,0.9782,0.9772,0.9754,0.9725,0.97,0.9696,0.9685,0.9678,0.9674,0.9712,0.9717,0.9721,0.9728,0.9677,0.9676,0.9635,0.9635,0.9635]}]]